Weather History for Portage Glacier, AK

Change the Weather History Date:

Sunday, March 2, 2014

  Actual Average Record
Temperature  
Mean Temperature 26 °F -  
Max Temperature 33 °F - - ()
Min Temperature 19 °F - - ()
Degree Days  
Heating Degree Days 39    
Moisture  
Dew Point 24 °F    
Average Humidity 93    
Maximum Humidity 100    
Minimum Humidity 73    
Precipitation  
Precipitation 0.00 in - - ()
Sea Level Pressure  
Sea Level Pressure 29.88 in    
Wind  
Wind Speed 2 mph (ESE)    
Max Wind Speed 13 mph    
Max Gust Speed 25 mph    
Visibility 7 miles    
Events Fog    
T = Trace of Precipitation, MM = Missing Value Source: NWS Daily Summary

Daily Weather History Graph

Daily Weather History Graph

Search for Another Location

Airport:

Trip Planner

Search our weather history database for the weather conditions in past years. The results will help you decide how hot, cold, wet, or windy it might be!

Date:

Astronomy

Mar. 02, 2014 Rise Set
Actual Time 7:51 AM AKST 6:24 PM AKST
Civil Twilight 7:08 AM AKST 7:07 PM AKST
Nautical Twilight 6:19 AM AKST 7:56 PM AKST
Astronomical Twilight 5:29 AM AKST 8:47 PM AKST
Moon 7:54 AM AKST (3/2) 9:16 PM AKST (3/2)
Length of Visible Light 11h 58m
Length of Day
10h 33m
Waxing Crescent, 3% of the Moon is Illuminated
Mar 2
Waxing Crescent
Mar 8
First Quarter
Mar 16
Full
Mar 23
Last Quarter
Mar 30
New

Hourly Weather History & Observations

Time (AKST) Temp. Windchill Dew Point Humidity Pressure Visibility Wind Dir Wind Speed Gust Speed Precip Events Conditions
12:53 AM 25.0 °F - 24.1 °F 96% 29.94 in 10.0 mi Calm Calm - N/A   Clear
1:00 AM 25.0 °F - 24.1 °F 96% 29.94 in 10.0 mi Calm Calm - N/A   Scattered Clouds
1:09 AM 25.0 °F - 24.1 °F 96% 29.94 in 10.0 mi Calm Calm - N/A   Mostly Cloudy
1:20 AM 25.0 °F - 24.1 °F 96% 29.94 in 10.0 mi Calm Calm - N/A   Scattered Clouds
1:53 AM 24.1 °F - 23.0 °F 96% 29.94 in 10.0 mi Calm Calm - N/A   Scattered Clouds
2:07 AM 24.1 °F 18.2 °F 24.1 °F 100% 29.93 in 10.0 mi WSW 4.6 mph - N/A   Mostly Cloudy
3:32 AM 25.0 °F - 24.1 °F 96% 29.92 in 1.8 mi Calm Calm - N/A   Overcast
3:51 AM 24.8 °F 20.5 °F 24.8 °F 100% 29.91 in 0.8 mi WSW 3.5 mph - N/A   Mist
3:53 AM 24.1 °F - 23.0 °F 96% 29.92 in 0.8 mi Calm Calm - N/A   Mist
4:02 AM 23.0 °F - 23.0 °F 100% 29.91 in 1.0 mi Calm Calm - N/A   Mist
4:08 AM 23.0 °F - 23.0 °F 100% 29.91 in 3.0 mi Calm Calm - N/A   Overcast
4:16 AM 23.0 °F - 21.9 °F 96% 29.91 in 1.8 mi Calm Calm - N/A   Overcast
4:25 AM 23.0 °F - 21.9 °F 96% 29.91 in 3.0 mi Calm Calm - N/A   Overcast
4:46 AM 21.9 °F - 21.0 °F 96% 29.91 in 10.0 mi Calm Calm - N/A   Scattered Clouds
4:53 AM 21.9 °F - 21.0 °F 96% 29.91 in 10.0 mi Calm Calm - N/A   Scattered Clouds
5:12 AM 21.0 °F - 19.9 °F 96% 29.91 in 10.0 mi Calm Calm - N/A   Mostly Cloudy
5:26 AM 21.0 °F - 19.9 °F 96% 29.90 in 10.0 mi Calm Calm - N/A   Overcast
5:53 AM 21.9 °F - 21.9 °F 100% 29.91 in 10.0 mi Calm Calm - N/A   Overcast
6:11 AM 21.9 °F 17.2 °F 21.9 °F 100% 29.90 in 1.5 mi WSW 3.5 mph - N/A   Overcast
6:22 AM 21.9 °F - 21.9 °F 100% 29.90 in 0.8 mi Calm Calm - N/A   Overcast
6:34 AM 21.9 °F - 21.9 °F 100% 29.89 in 1.2 mi Calm Calm - N/A   Overcast
6:42 AM 21.9 °F - 21.0 °F 96% 29.89 in 3.0 mi Calm Calm - N/A   Overcast
6:53 AM 21.0 °F - 21.0 °F 100% 29.90 in 9.0 mi Calm Calm - N/A   Overcast
7:30 AM 19.9 °F - 19.9 °F 100% 29.89 in 10.0 mi Calm Calm - N/A   Overcast
7:53 AM 19.9 °F - 19.9 °F 100% 29.89 in 10.0 mi Calm Calm - N/A   Overcast
8:39 AM 21.0 °F - 19.9 °F 96% 29.89 in 9.0 mi Calm Calm - N/A   Overcast
8:45 AM 21.0 °F - 21.0 °F 100% 29.89 in 1.5 mi Calm Calm - N/A   Overcast
8:53 AM 21.0 °F - 21.0 °F 100% 29.89 in 0.2 mi Calm Calm - N/A Fog Light Freezing Fog
9:12 AM 21.0 °F - 21.0 °F 100% 29.89 in 0.8 mi Calm Calm - N/A   Overcast
9:22 AM 21.9 °F - 21.9 °F 100% 29.89 in 1.5 mi Calm Calm - N/A   Overcast
9:44 AM 21.9 °F - 21.9 °F 100% 29.88 in 3.0 mi Calm Calm - N/A   Overcast
9:53 AM 23.0 °F - 23.0 °F 100% 29.88 in 6.0 mi Calm Calm - N/A   Overcast
10:04 AM 24.1 °F - 24.1 °F 100% 29.88 in 10.0 mi Calm Calm - N/A   Scattered Clouds
10:43 AM 24.1 °F 19.7 °F 23.0 °F 96% 29.88 in 1.5 mi SE 3.5 mph - N/A   Scattered Clouds
10:53 AM 25.0 °F - 24.1 °F 96% 29.88 in 1.0 mi Calm Calm - N/A   Mostly Cloudy
11:02 AM 25.0 °F - 25.0 °F 100% 29.87 in 3.0 mi Calm Calm - N/A   Overcast
11:08 AM 25.0 °F 20.7 °F 24.1 °F 96% 29.87 in 1.8 mi East 3.5 mph - N/A   Overcast
11:19 AM 25.0 °F 20.7 °F 25.0 °F 100% 29.87 in 3.0 mi East 3.5 mph - N/A   Mostly Cloudy
11:40 AM 27.0 °F - 25.0 °F 92% 29.87 in 10.0 mi Calm Calm - N/A   Scattered Clouds
11:53 AM 27.0 °F - 26.1 °F 96% 29.88 in 10.0 mi Calm Calm - N/A   Clear
12:53 PM 28.9 °F 23.9 °F 25.0 °F 85% 29.88 in 10.0 mi East 4.6 mph - N/A   Clear
1:53 PM 30.0 °F 24.1 °F 26.1 °F 85% 29.87 in 10.0 mi ESE 5.8 mph - N/A   Clear
2:53 PM 32.0 °F 27.5 °F 24.1 °F 73% 29.86 in 10.0 mi ESE 4.6 mph - N/A   Clear
3:53 PM 33.1 °F 26.1 °F 28.0 °F 82% 29.85 in 10.0 mi ESE 8.1 mph - N/A   Clear
4:53 PM 33.1 °F 23.9 °F 28.0 °F 82% 29.84 in 10.0 mi ESE 12.7 mph 25.3 mph N/A   Clear
5:53 PM 32.0 °F 23.0 °F 27.0 °F 82% 29.84 in 10.0 mi ESE 11.5 mph 23.0 mph N/A   Clear
6:53 PM 32.0 °F 24.8 °F 27.0 °F 82% 29.84 in 10.0 mi ESE 8.1 mph 20.7 mph 0.00 in   Partly Cloudy
7:53 PM 32.0 °F 24.2 °F 28.0 °F 85% 29.84 in 10.0 mi ESE 9.2 mph 20.7 mph N/A   Scattered Clouds
8:01 PM 32.0 °F 25.6 °F 27.0 °F 82% 29.84 in 10.0 mi Variable 6.9 mph 20.7 mph N/A   Mostly Cloudy
8:15 PM 32.0 °F 24.2 °F 26.1 °F 79% 29.84 in 10.0 mi SE 9.2 mph - N/A   Scattered Clouds
8:48 PM 32.0 °F 24.2 °F 26.6 °F 80% 29.84 in 10.0 mi ESE 9.2 mph - N/A   Mostly Cloudy
8:53 PM 32.0 °F 25.6 °F 26.1 °F 79% 29.84 in 10.0 mi ESE 6.9 mph 18.4 mph N/A   Mostly Cloudy
9:06 PM 32.0 °F 23.6 °F 26.1 °F 79% 29.84 in 10.0 mi ESE 10.4 mph 18.4 mph N/A   Scattered Clouds
9:35 PM 32.0 °F 24.2 °F 26.1 °F 79% 29.84 in 10.0 mi ESE 9.2 mph - N/A   Mostly Cloudy
9:53 PM 32.0 °F 23.6 °F 26.1 °F 79% 29.84 in 10.0 mi ESE 10.4 mph 18.4 mph N/A   Mostly Cloudy
10:53 PM 32.0 °F 24.8 °F 26.1 °F 79% 29.84 in 10.0 mi ESE 8.1 mph - N/A   Overcast
11:53 PM 30.9 °F 23.5 °F 26.1 °F 82% 29.84 in 10.0 mi ESE 8.1 mph - N/A   Mostly Cloudy